Content
SEND FEEDBACK

Daily
Averages
Monthly
Summary
United States of America

WILMINGTON, NORTH CAROLINA


Home > North America > United States > North Carolina
Elevation: 21 meters     Latitude: 34 16N     Longitude: 077 54W

WEATHER
 
SELECT A DAY
Number of Records: 214,110;   Date Range: 1/1/95 - 12/19/14
 
SHARE

PRINT THIS DATA

[ ← Previous Day ]
WEATHER ALMANAC - 21 AUGUST, 2013
[ Next Day → ]
[ °F ]   °C
Weather ElementAverageHighLow
Temperature25.6 °C31 °C (11:00 am)22 °C (4:44 am)
Dewpoint22.7 °C24.4 °C (8:53 am)21.7 °C (3:53 am)
Humidity85.6 %100 % (4:44 am)62 % (11:00 am)
Barometer1022 hPa1023.4 hPa (9:53 am)1020 hPa (6:53 pm)
Wind Speed4 km/h16.7 km/h (2:53 pm)
Weather ElementAverage
Visibility11.4 km
Wind DirectionENE (55.9 °)

Weather ElementTotal
Precipitation---
Cooling Degree Days8.2 (Base 18.3)
Growing Degree Days16.5 (Base 10)
Averaged from 44 records on 21 August, 2013
WEATHER CONDITIONS BREAKOUT
WIND DIRECTION BREAKOUT
WEATHER BY HOUR - 21 AUGUST, 2013
[ °F ]   °C
Local TimeTemperatureDewpointHumidityBarometerVisibilityWind DirectionWind SpeedGust SpeedPrecipitationEventsConditions
12:53 AM23.9 °C22.8 °C94 %1022.4 hPa12.9 kmCalmClear
1:53 AM23.3 °C22.8 °C97 %1021.7 hPa16.1 kmCalmClear
2:53 AM22.8 °C22.2 °C96 %1021.3 hPa16.1 kmCalmClear
3:53 AM22.2 °C21.7 °C97 %1021.7 hPa16.1 kmCalmClear
4:44 AM22 °C22 °C100 %1021.3 hPa8 kmNNE (30°)5.6 km/hScattered Clouds
4:49 AM22 °C22 °C100 %1021.3 hPa2.9 kmNNE (20°)5.6 km/hMostly Cloudy
4:53 AM22.2 °C21.7 °C97 %1021.7 hPa1.9 kmCalmMostly Cloudy
5:02 AM22 °C22 °C100 %1021.7 hPa0.8 kmCalmFogFog
5:20 AM22 °C22 °C100 %1021.3 hPa0.3 kmCalmFogFog
5:53 AM22.2 °C22.2 °C100 %1021.7 hPa0.8 kmCalmFogFog
6:21 AM22 °C22 °C100 %1021.7 hPa0.3 kmNE (40°)5.6 km/hFogFog
6:40 AM22 °C22 °C100 %1022 hPa1.3 kmCalmMist
6:43 AM22 °C22 °C100 %1022 hPa2.4 kmCalmMostly Cloudy
6:46 AM22 °C22 °C100 %1022 hPa4.8 kmCalmMostly Cloudy
6:49 AM22 °C22 °C100 %1022 hPa2.9 kmCalmScattered Clouds
6:53 AM22.2 °C21.7 °C97 %1022.4 hPa1.3 kmCalmMist
7:02 AM22 °C22 °C100 %1022.4 hPa1.9 kmCalmScattered Clouds
7:04 AM22 °C22 °C100 %1022.4 hPa4 kmCalmScattered Clouds
7:11 AM22 °C22 °C100 %1022.4 hPa8 kmCalmPartly Cloudy
7:53 AM24.4 °C23.3 °C94 %1023 hPa16.1 kmCalmClear
8:53 AM26.7 °C24.4 °C87 %1023 hPa16.1 kmEast (100°)5.6 km/hClear
9:53 AM28.3 °C23.3 °C74 %1023.4 hPa16.1 kmCalmPartly Cloudy
10:44 AM29 °C23 °C70 %1023.4 hPa16.1 kmCalmMostly Cloudy
10:53 AM28.9 °C22.8 °C69 %1023.4 hPa16.1 kmCalmMostly Cloudy
11:00 AM31 °C23 °C62 %1023.4 hPa16.1 kmCalmOvercast
11:14 AM30 °C23 °C66 %1023.4 hPa16.1 kmWest (280°)5.6 km/hMostly Cloudy
11:53 AM29.4 °C22.8 °C67 %1023.4 hPa16.1 kmCalmPartly Cloudy
12:53 PM28.9 °C23.9 °C74 %1023 hPa16.1 kmESE (120°)11.1 km/hScattered Clouds
1:53 PM30 °C23.3 °C67 %1022.4 hPa16.1 kmSouth (170°)9.3 km/hScattered Clouds
2:16 PM29 °C24 °C74 %1022 hPa16.1 kmSE (130°)14.8 km/hMostly Cloudy
2:27 PM29 °C23 °C70 %1022 hPa16.1 kmESE (120°)14.8 km/hMostly Cloudy
2:53 PM30 °C23.9 °C70 %1021.7 hPa16.1 kmESE (120°)16.7 km/hMostly Cloudy
3:20 PM31 °C23 °C62 %1021 hPa16.1 kmSSE (150°)13 km/hScattered Clouds
3:53 PM30.6 °C23.3 °C65 %1021 hPa16.1 kmSouth (170°)13 km/hClear
4:53 PM30 °C22.8 °C65 %1020.7 hPa16.1 kmSSE (160°)13 km/hClear
5:53 PM30 °C23.3 °C67 %1020.3 hPa16.1 kmSouth (170°)14.8 km/hClear
6:53 PM28.9 °C23.9 °C74 %1020 hPa16.1 kmSouth (180°)11.1 km/hPartly Cloudy
7:53 PM27.2 °C23.3 °C79 %1020.3 hPa16.1 kmSouth (170°)5.6 km/hClear
8:53 PM26.7 °C23.9 °C85 %1021.3 hPa16.1 kmCalmClear
9:53 PM26.1 °C23.9 °C88 %1022 hPa16.1 kmNW (320°)7.4 km/hClear
10:38 PM25 °C23 °C89 %1022 hPa16.1 kmNorth (10°)7.4 km/hMostly Cloudy
10:51 PM24 °C22 °C89 %1021.7 hPa16.1 kmCalmScattered Clouds
10:53 PM24.4 °C22.2 °C87 %1021.7 hPa16.1 kmCalmScattered Clouds
11:53 PM23.3 °C22.2 °C93 %1021 hPa16.1 kmCalmClear
Hourly data recorded from KILM, located 0 kilometers away from Wilmington, North Carolina







STORIES FROM OUR PARTNERS